JAL499 RJTT-RJOK

Flight info

Callsign JAL499
Flight time 1h 15m
Altitude 36000
Route LAXAS Y56 TOHME Y54 KOHWA Y12 KEC Y24 TURFY Y242 PANCH
Aircraft B738/M-SDE2E3FGHIRWXY/LB1

Departure

Time 2026-04-30 11:24
Airport Tokyo Haneda International Airport (RJTT)

Arrival

Time 2026-04-30 12:39
Airport Kochi Ryoma Airport (RJOK)
Time Latitude Longitude Altitude Speed Heading
2026-04-30 10:53 35.54771 139.78333 23 ft 0 kts 20°
2026-04-30 10:54 35.54767 139.78330 24 ft 0 kts 20°
2026-04-30 11:05 35.54758 139.78327 24 ft 4 kts 20°
2026-04-30 11:05 35.54733 139.78315 23 ft 4 kts 20°
2026-04-30 11:05 35.54711 139.78305 23 ft 2 kts 20°
2026-04-30 11:06 35.54688 139.78293 23 ft 4 kts 32°
2026-04-30 11:06 35.54669 139.78273 22 ft 4 kts 64°
2026-04-30 11:06 35.54668 139.78248 25 ft 4 kts 123°
2026-04-30 11:06 35.54685 139.78223 25 ft 4 kts 145°
2026-04-30 11:07 35.54702 139.78210 29 ft 0 kts 150°
2026-04-30 11:10 35.54689 139.78219 24 ft 4 kts 150°
2026-04-30 11:10 35.54645 139.78246 24 ft 9 kts 162°
2026-04-30 11:11 35.54587 139.78217 22 ft 10 kts 232°
2026-04-30 11:11 35.54523 139.78208 22 ft 10 kts 152°
2026-04-30 11:11 35.54463 139.78252 21 ft 10 kts 148°
2026-04-30 11:11 35.54398 139.78302 23 ft 12 kts 148°
2026-04-30 11:12 35.54317 139.78358 20 ft 15 kts 153°
2026-04-30 11:12 35.54226 139.78415 22 ft 15 kts 153°
2026-04-30 11:12 35.54141 139.78479 20 ft 14 kts 149°
2026-04-30 11:12 35.54047 139.78546 21 ft 17 kts 150°
2026-04-30 11:13 35.53945 139.78619 21 ft 17 kts 149°
2026-04-30 11:13 35.53845 139.78690 22 ft 16 kts 150°
2026-04-30 11:13 35.53751 139.78762 20 ft 16 kts 141°
2026-04-30 11:13 35.53665 139.78849 17 ft 16 kts 140°
2026-04-30 11:14 35.53579 139.78939 16 ft 16 kts 139°
2026-04-30 11:14 35.53497 139.79025 17 ft 15 kts 140°
2026-04-30 11:14 35.53418 139.79109 17 ft 15 kts 137°
2026-04-30 11:14 35.53374 139.79216 18 ft 14 kts 98°
2026-04-30 11:15 35.53405 139.79322 18 ft 13 kts 60°
2026-04-30 11:15 35.53451 139.79419 19 ft 13 kts 60°
2026-04-30 11:15 35.53495 139.79513 22 ft 13 kts 59°
2026-04-30 11:15 35.53540 139.79608 21 ft 14 kts 60°
2026-04-30 11:16 35.53593 139.79718 18 ft 16 kts 59°
2026-04-30 11:16 35.53647 139.79835 21 ft 16 kts 60°
2026-04-30 11:16 35.53704 139.79955 22 ft 16 kts 66°
2026-04-30 11:16 35.53664 139.80058 20 ft 15 kts 154°
2026-04-30 11:17 35.53574 139.80119 29 ft 15 kts 150°
2026-04-30 11:17 35.53486 139.80181 30 ft 14 kts 150°
2026-04-30 11:17 35.53403 139.80241 31 ft 14 kts 149°
2026-04-30 11:17 35.53306 139.80310 37 ft 18 kts 150°
2026-04-30 11:18 35.53192 139.80390 42 ft 19 kts 150°
2026-04-30 11:18 35.52999 139.80524 48 ft 11 kts 162°
2026-04-30 11:18 35.52931 139.80494 47 ft 11 kts 225°
2026-04-30 11:19 35.52877 139.80431 47 ft 11 kts 223°
2026-04-30 11:19 35.52824 139.80371 49 ft 10 kts 222°
2026-04-30 11:19 35.52771 139.80312 47 ft 10 kts 221°
2026-04-30 11:19 35.52720 139.80256 48 ft 10 kts 221°
2026-04-30 11:20 35.52671 139.80200 50 ft 10 kts 223°
2026-04-30 11:20 35.52622 139.80147 50 ft 9 kts 214°
2026-04-30 11:20 35.52558 139.80164 50 ft 11 kts 137°
2026-04-30 11:20 35.52507 139.80231 48 ft 11 kts 133°
2026-04-30 11:21 35.52464 139.80288 47 ft 7 kts 133°
2026-04-30 11:21 35.52433 139.80338 52 ft 7 kts 111°
2026-04-30 11:21 35.52443 139.80394 49 ft 7 kts 48°
2026-04-30 11:21 35.52452 139.80405 50 ft 0 kts 43°
2026-04-30 11:23 35.52532 139.80496 49 ft 46 kts 43°
2026-04-30 11:23 35.53662 139.81781 264 ft 149 kts 43°
2026-04-30 11:24 35.54386 139.82680 980 ft 158 kts 45°
2026-04-30 11:24 35.55145 139.83734 1615 ft 168 kts 60°
2026-04-30 11:24 35.55363 139.85096 2412 ft 165 kts 103°
2026-04-30 11:25 35.54593 139.87791 3680 ft 187 kts 112°
2026-04-30 11:25 35.54108 139.89381 3886 ft 212 kts 112°
2026-04-30 11:25 35.52229 139.92466 4555 ft 250 kts 156°
2026-04-30 11:26 35.48840 139.92194 6197 ft 259 kts 210°
2026-04-30 11:26 35.47483 139.90739 7051 ft 261 kts 227°
2026-04-30 11:26 35.46316 139.89021 7856 ft 264 kts 230°
2026-04-30 11:27 35.45166 139.87265 8713 ft 264 kts 230°
2026-04-30 11:27 35.44024 139.85508 9593 ft 264 kts 231°
2026-04-30 11:27 35.42874 139.83746 10358 ft 268 kts 231°
2026-04-30 11:27 35.41662 139.81895 10607 ft 291 kts 231°
2026-04-30 11:28 35.38923 139.77739 10949 ft 335 kts 231°
2026-04-30 11:28 35.37411 139.75455 11103 ft 355 kts 231°
2026-04-30 11:28 35.35838 139.73085 11289 ft 371 kts 231°
2026-04-30 11:29 35.34188 139.70603 11749 ft 378 kts 231°
2026-04-30 11:29 35.32516 139.68090 12313 ft 382 kts 231°
2026-04-30 11:29 35.29121 139.62994 13395 ft 390 kts 232°
2026-04-30 11:30 35.25654 139.57800 14394 ft 398 kts 232°
2026-04-30 11:30 35.23899 139.55174 14915 ft 400 kts 232°
2026-04-30 11:30 35.22158 139.52572 15413 ft 401 kts 233°
2026-04-30 11:31 35.20386 139.49924 15874 ft 403 kts 233°
2026-04-30 11:31 35.18611 139.47276 16583 ft 398 kts 233°
2026-04-30 11:31 35.16884 139.44704 17611 ft 386 kts 233°
2026-04-30 11:31 35.15204 139.42201 18628 ft 375 kts 233°
2026-04-30 11:32 35.13591 139.39802 19771 ft 356 kts 233°
2026-04-30 11:32 35.12056 139.37518 20805 ft 344 kts 233°
2026-04-30 11:32 35.10544 139.35265 21454 ft 343 kts 234°
2026-04-30 11:33 35.07493 139.30721 22441 ft 348 kts 234°
2026-04-30 11:33 35.05954 139.28436 22994 ft 348 kts 234°
2026-04-30 11:33 35.04527 139.26109 23538 ft 346 kts 241°
2026-04-30 11:33 35.03413 139.23513 24024 ft 345 kts 247°
2026-04-30 11:34 35.02544 139.20780 24449 ft 346 kts 253°
2026-04-30 11:34 35.02004 139.17923 24863 ft 347 kts 258°
2026-04-30 11:34 35.01536 139.15030 25281 ft 348 kts 258°
2026-04-30 11:34 35.01073 139.12131 25691 ft 349 kts 258°
2026-04-30 11:35 35.00601 139.09217 26122 ft 350 kts 257°
2026-04-30 11:35 35.00129 139.06348 26539 ft 350 kts 257°
2026-04-30 11:35 34.99637 139.03399 26952 ft 350 kts 257°
2026-04-30 11:35 34.99157 139.00528 27329 ft 351 kts 257°
2026-04-30 11:36 34.98736 138.97583 27681 ft 354 kts 262°
2026-04-30 11:36 34.98556 138.94584 28060 ft 355 kts 263°
2026-04-30 11:36 34.98405 138.91566 28312 ft 357 kts 263°
2026-04-30 11:36 34.98258 138.88546 28613 ft 358 kts 263°
2026-04-30 11:37 34.98108 138.85517 28935 ft 358 kts 263°
2026-04-30 11:37 34.97954 138.82488 29197 ft 360 kts 262°
2026-04-30 11:37 34.97798 138.79481 29549 ft 359 kts 262°
2026-04-30 11:37 34.97639 138.76448 29901 ft 360 kts 262°
2026-04-30 11:38 34.97476 138.73394 30184 ft 361 kts 262°
2026-04-30 11:38 34.97311 138.70338 30415 ft 362 kts 262°
2026-04-30 11:38 34.97146 138.67280 30624 ft 363 kts 262°
2026-04-30 11:38 34.96978 138.64195 30818 ft 365 kts 262°
2026-04-30 11:39 34.96808 138.61102 31011 ft 367 kts 262°
2026-04-30 11:39 34.96637 138.57995 31240 ft 367 kts 262°
2026-04-30 11:39 34.96466 138.54892 31508 ft 368 kts 262°
2026-04-30 11:39 34.96293 138.51769 31765 ft 369 kts 262°
2026-04-30 11:40 34.96122 138.48692 31995 ft 369 kts 262°
2026-04-30 11:40 34.95946 138.45563 32201 ft 370 kts 262°
2026-04-30 11:40 34.95770 138.42428 32392 ft 371 kts 262°
2026-04-30 11:40 34.95593 138.39286 32554 ft 373 kts 262°
2026-04-30 11:41 34.95414 138.36131 32754 ft 373 kts 262°
2026-04-30 11:41 34.95235 138.32982 33062 ft 371 kts 262°
2026-04-30 11:41 34.95058 138.29860 33406 ft 368 kts 262°
2026-04-30 11:41 34.94879 138.26752 33675 ft 367 kts 262°
2026-04-30 11:42 34.94702 138.23696 33930 ft 366 kts 262°
2026-04-30 11:42 34.94522 138.20603 34242 ft 364 kts 262°
2026-04-30 11:42 34.94343 138.17535 34409 ft 365 kts 262°
2026-04-30 11:42 34.94162 138.14437 34539 ft 366 kts 262°
2026-04-30 11:43 34.93982 138.11355 34781 ft 364 kts 262°
2026-04-30 11:43 34.93804 138.08296 35088 ft 361 kts 262°
2026-04-30 11:43 34.93625 138.05248 35302 ft 360 kts 262°
2026-04-30 11:43 34.93446 138.02211 35461 ft 360 kts 262°
2026-04-30 11:44 34.93268 137.99199 35644 ft 360 kts 261°
2026-04-30 11:44 34.93087 137.96156 35809 ft 361 kts 261°
2026-04-30 11:44 34.92905 137.93107 36033 ft 359 kts 261°
2026-04-30 11:44 34.92723 137.90067 36098 ft 362 kts 261°
2026-04-30 11:45 34.92350 137.83901 36127 ft 368 kts 261°
2026-04-30 11:45 34.91979 137.77637 36113 ft 373 kts 261°
2026-04-30 11:46 34.91615 137.71319 36093 ft 378 kts 261°
2026-04-30 11:46 34.90666 137.65069 36098 ft 374 kts 250°
2026-04-30 11:47 34.88857 137.59119 36084 ft 375 kts 248°
2026-04-30 11:47 34.87046 137.53177 36071 ft 370 kts 248°
2026-04-30 11:48 34.85284 137.47351 36077 ft 364 kts 249°
2026-04-30 11:48 34.83622 137.41594 36069 ft 361 kts 249°
2026-04-30 11:49 34.81991 137.35828 36069 ft 359 kts 249°
2026-04-30 11:49 34.80361 137.30096 36070 ft 359 kts 249°
2026-04-30 11:50 34.78721 137.24358 36073 ft 359 kts 249°
2026-04-30 11:50 34.77069 137.18600 36072 ft 361 kts 249°
2026-04-30 11:51 34.75417 137.12851 36093 ft 364 kts 249°
2026-04-30 11:51 34.73743 137.07031 36075 ft 366 kts 249°
2026-04-30 11:52 34.72040 137.01198 36066 ft 366 kts 246°
2026-04-30 11:52 34.69365 136.95949 36059 ft 367 kts 234°
2026-04-30 11:53 34.65871 136.91461 36034 ft 373 kts 223°
2026-04-30 11:53 34.61742 136.87655 36063 ft 373 kts 222°
2026-04-30 11:54 34.57600 136.83874 36064 ft 373 kts 222°
2026-04-30 11:54 34.53461 136.80075 36066 ft 373 kts 222°
2026-04-30 11:55 34.49332 136.76276 36072 ft 373 kts 222°
2026-04-30 11:55 34.45227 136.72502 36075 ft 373 kts 222°
2026-04-30 11:56 34.41100 136.68710 36074 ft 372 kts 222°
2026-04-30 11:56 34.36968 136.64919 36065 ft 373 kts 222°
2026-04-30 11:57 34.32838 136.61135 36070 ft 372 kts 222°
2026-04-30 11:57 34.28753 136.57376 36075 ft 372 kts 222°
2026-04-30 11:58 34.24674 136.53542 36083 ft 371 kts 222°
2026-04-30 11:58 34.20591 136.49701 36062 ft 372 kts 222°
2026-04-30 11:59 34.16504 136.45863 36074 ft 372 kts 222°
2026-04-30 11:59 34.12439 136.42056 36065 ft 372 kts 222°
2026-04-30 12:00 34.08345 136.38230 36073 ft 372 kts 222°
2026-04-30 12:00 34.04252 136.34405 36066 ft 372 kts 222°
2026-04-30 12:01 34.00160 136.30583 36057 ft 372 kts 221°
2026-04-30 12:01 33.96061 136.26758 36062 ft 373 kts 221°
2026-04-30 12:02 33.91983 136.22957 36057 ft 374 kts 221°
2026-04-30 12:02 33.87862 136.19121 36053 ft 375 kts 221°
2026-04-30 12:03 33.81654 136.13355 36047 ft 376 kts 221°
2026-04-30 12:04 33.78199 136.10158 36047 ft 377 kts 221°
2026-04-30 12:04 33.73624 136.05383 36041 ft 373 kts 231°
2026-04-30 12:05 33.70662 136.00279 36032 ft 373 kts 240°
2026-04-30 12:05 33.68197 135.94786 36008 ft 374 kts 241°
2026-04-30 12:06 33.66160 135.90205 36018 ft 375 kts 241°
2026-04-30 12:06 33.63284 135.83785 36015 ft 376 kts 240°
2026-04-30 12:07 33.60789 135.78249 36009 ft 378 kts 240°
2026-04-30 12:07 33.58716 135.73647 36004 ft 375 kts 241°
2026-04-30 12:08 33.56220 135.68150 35982 ft 375 kts 240°
2026-04-30 12:08 33.53732 135.62656 35987 ft 375 kts 240°
2026-04-30 12:09 33.50818 135.56249 35960 ft 377 kts 241°
2026-04-30 12:09 33.48732 135.51669 35958 ft 376 kts 241°
2026-04-30 12:10 33.46228 135.46173 35953 ft 376 kts 241°
2026-04-30 12:10 33.43716 135.40671 35597 ft 382 kts 241°
2026-04-30 12:10 33.42437 135.37872 35040 ft 385 kts 241°
2026-04-30 12:11 33.41152 135.35062 34298 ft 386 kts 241°
2026-04-30 12:11 33.39862 135.32241 33532 ft 385 kts 241°
2026-04-30 12:11 33.38574 135.29430 32778 ft 385 kts 241°
2026-04-30 12:11 33.37300 135.26649 32061 ft 389 kts 240°
2026-04-30 12:12 33.35985 135.23782 31315 ft 398 kts 240°
2026-04-30 12:12 33.34638 135.20848 30510 ft 408 kts 240°
2026-04-30 12:12 33.33258 135.17845 29623 ft 415 kts 240°
2026-04-30 12:12 33.31861 135.14807 28678 ft 418 kts 240°
2026-04-30 12:13 33.30458 135.11758 27736 ft 420 kts 239°
2026-04-30 12:13 33.29042 135.08682 26836 ft 424 kts 239°
2026-04-30 12:13 33.27613 135.05581 25911 ft 427 kts 239°
2026-04-30 12:13 33.26186 135.02487 25195 ft 425 kts 239°
2026-04-30 12:14 33.24886 134.99379 24522 ft 424 kts 244°
2026-04-30 12:14 33.23937 134.96050 23777 ft 424 kts 251°
2026-04-30 12:14 33.23156 134.92652 22952 ft 423 kts 251°
2026-04-30 12:14 33.22371 134.89289 22234 ft 418 kts 251°
2026-04-30 12:15 33.21587 134.85986 21554 ft 406 kts 251°
2026-04-30 12:15 33.20820 134.82790 20551 ft 397 kts 251°
2026-04-30 12:15 33.20061 134.79656 19858 ft 385 kts 251°
2026-04-30 12:15 33.19322 134.76615 19249 ft 383 kts 251°
2026-04-30 12:16 33.18573 134.73541 18601 ft 388 kts 252°
2026-04-30 12:16 33.17822 134.70454 17964 ft 385 kts 252°
2026-04-30 12:16 33.17086 134.67426 17306 ft 386 kts 252°
2026-04-30 12:16 33.16548 134.64280 16677 ft 388 kts 260°
2026-04-30 12:17 33.16561 134.57865 15503 ft 385 kts 270°
2026-04-30 12:17 33.16737 134.54683 14909 ft 384 kts 270°
2026-04-30 12:17 33.16956 134.50487 14103 ft 382 kts 270°
2026-04-30 12:18 33.17063 134.48350 13711 ft 381 kts 270°
2026-04-30 12:18 33.17217 134.45201 13057 ft 379 kts 270°
2026-04-30 12:18 33.17365 134.42122 12454 ft 376 kts 270°
2026-04-30 12:18 33.17513 134.39021 11919 ft 373 kts 270°
2026-04-30 12:19 33.17658 134.35922 11371 ft 375 kts 270°
2026-04-30 12:19 33.17802 134.32853 11237 ft 369 kts 270°
2026-04-30 12:19 33.17944 134.29767 11068 ft 370 kts 270°
2026-04-30 12:19 33.18085 134.26799 10880 ft 346 kts 270°
2026-04-30 12:20 33.18216 134.24027 10744 ft 323 kts 270°
2026-04-30 12:20 33.18336 134.21437 10610 ft 303 kts 269°
2026-04-30 12:20 33.18445 134.19030 10480 ft 286 kts 270°
2026-04-30 12:20 33.18550 134.16728 10365 ft 271 kts 269°
2026-04-30 12:21 33.18649 134.14493 10294 ft 269 kts 269°
2026-04-30 12:21 33.18746 134.12259 10178 ft 272 kts 269°
2026-04-30 12:21 33.18919 134.10002 10052 ft 275 kts 280°
2026-04-30 12:21 33.19776 134.07945 9762 ft 283 kts 304°
2026-04-30 12:22 33.21183 134.06251 9364 ft 290 kts 313°
2026-04-30 12:22 33.22714 134.04662 8938 ft 293 kts 313°
2026-04-30 12:22 33.24275 134.03071 8519 ft 296 kts 315°
2026-04-30 12:22 33.25848 134.01462 8102 ft 300 kts 316°
2026-04-30 12:23 33.27414 133.99849 7685 ft 303 kts 315°
2026-04-30 12:23 33.29017 133.98180 7267 ft 307 kts 317°
2026-04-30 12:23 33.30631 133.96498 6842 ft 310 kts 317°
2026-04-30 12:23 33.32263 133.94790 6397 ft 314 kts 317°
2026-04-30 12:24 33.33901 133.93070 5918 ft 312 kts 320°
2026-04-30 12:24 33.35522 133.91364 5336 ft 311 kts 321°
2026-04-30 12:24 33.37131 133.89634 4843 ft 308 kts 320°
2026-04-30 12:24 33.38704 133.87963 4544 ft 298 kts 323°
2026-04-30 12:25 33.40239 133.86382 4146 ft 293 kts 322°
2026-04-30 12:25 33.41766 133.84783 3717 ft 291 kts 320°
2026-04-30 12:25 33.43180 133.83016 3249 ft 296 kts 314°
2026-04-30 12:25 33.44497 133.81115 2838 ft 298 kts 311°
2026-04-30 12:26 33.45805 133.79240 2429 ft 288 kts 313°
2026-04-30 12:26 33.47082 133.77462 2062 ft 275 kts 313°
2026-04-30 12:26 33.48303 133.75755 1679 ft 263 kts 313°
2026-04-30 12:26 33.49447 133.74152 1363 ft 242 kts 312°
2026-04-30 12:27 33.50484 133.72701 1067 ft 223 kts 312°
2026-04-30 12:27 33.51449 133.71352 774 ft 204 kts 311°
2026-04-30 12:27 33.52333 133.70113 544 ft 187 kts 310°
2026-04-30 12:27 33.53087 133.69042 718 ft 158 kts 311°
2026-04-30 12:28 33.53816 133.68022 732 ft 175 kts 312°
2026-04-30 12:28 33.54632 133.66764 1014 ft 210 kts 297°
2026-04-30 12:28 33.54780 133.64947 1258 ft 235 kts 252°
2026-04-30 12:28 33.53900 133.63266 1709 ft 247 kts 218°
2026-04-30 12:29 33.52400 133.62343 2529 ft 245 kts 192°
2026-04-30 12:29 33.50734 133.62261 2924 ft 234 kts 174°
2026-04-30 12:29 33.49139 133.62482 2980 ft 234 kts 170°
2026-04-30 12:29 33.47583 133.62905 2974 ft 228 kts 151°
2026-04-30 12:30 33.46291 133.63932 3000 ft 219 kts 140°
2026-04-30 12:30 33.45105 133.64979 2988 ft 204 kts 133°
2026-04-30 12:30 33.44129 133.66121 3042 ft 190 kts 132°
2026-04-30 12:30 33.43192 133.67182 3107 ft 183 kts 132°
2026-04-30 12:31 33.42268 133.68229 3106 ft 185 kts 132°
2026-04-30 12:31 33.41336 133.69299 3094 ft 186 kts 132°
2026-04-30 12:31 33.40401 133.70377 3106 ft 187 kts 132°
2026-04-30 12:31 33.39457 133.71463 3101 ft 189 kts 133°
2026-04-30 12:32 33.38534 133.72529 3098 ft 184 kts 135°
2026-04-30 12:32 33.37615 133.73524 3092 ft 173 kts 134°
2026-04-30 12:32 33.36798 133.74510 3087 ft 162 kts 133°
2026-04-30 12:32 33.36016 133.75436 3092 ft 157 kts 133°
2026-04-30 12:33 33.35316 133.76432 3073 ft 157 kts 111°
2026-04-30 12:33 33.35330 133.77715 3103 ft 162 kts 76°
2026-04-30 12:33 33.35854 133.78935 3082 ft 173 kts 55°
2026-04-30 12:33 33.36808 133.79834 3105 ft 175 kts 47°
2026-04-30 12:34 33.37763 133.80728 3103 ft 178 kts 48°
2026-04-30 12:34 33.38733 133.81661 3109 ft 180 kts 45°
2026-04-30 12:34 33.39772 133.82508 3097 ft 185 kts 28°
2026-04-30 12:34 33.41016 133.82826 3110 ft 179 kts 18°
2026-04-30 12:35 33.42206 133.83070 3089 ft 176 kts
2026-04-30 12:35 33.43175 133.82157 3007 ft 199 kts 302°
2026-04-30 12:35 33.44049 133.80910 2977 ft 196 kts 326°
2026-04-30 12:35 33.45109 133.79828 2605 ft 202 kts 322°
2026-04-30 12:36 33.46114 133.78701 2342 ft 201 kts 320°
2026-04-30 12:36 33.47057 133.77496 2097 ft 194 kts 315°
2026-04-30 12:36 33.47917 133.76299 1834 ft 186 kts 313°
2026-04-30 12:36 33.48743 133.75139 1571 ft 180 kts 314°
2026-04-30 12:37 33.49537 133.74027 1332 ft 171 kts 313°
2026-04-30 12:37 33.50290 133.72973 1107 ft 162 kts 313°
2026-04-30 12:37 33.51016 133.71959 895 ft 159 kts 312°
2026-04-30 12:37 33.51721 133.70973 700 ft 153 kts 310°
2026-04-30 12:38 33.52395 133.70031 509 ft 150 kts 311°
2026-04-30 12:38 33.53075 133.69078 300 ft 150 kts 311°
2026-04-30 12:38 33.53750 133.68137 115 ft 150 kts 311°
2026-04-30 12:38 33.54411 133.67211 31 ft 134 kts 314°
2026-04-30 12:39 33.54894 133.66537 28 ft 77 kts 310°
2026-04-30 12:39 33.55065 133.66300 27 ft 20 kts 311°
2026-04-30 12:39 33.55153 133.66179 25 ft 19 kts 310°
2026-04-30 12:39 33.55235 133.66060 24 ft 18 kts 310°
2026-04-30 12:40 33.55319 133.65955 24 ft 17 kts 333°
2026-04-30 12:40 33.55420 133.66011 26 ft 17 kts 51°
2026-04-30 12:40 33.55399 133.66133 29 ft 16 kts 131°
2026-04-30 12:40 33.55327 133.66232 26 ft 15 kts 130°
2026-04-30 12:41 33.55259 133.66328 27 ft 15 kts 130°
2026-04-30 12:41 33.55194 133.66420 29 ft 14 kts 130°
2026-04-30 12:41 33.55131 133.66507 27 ft 14 kts 131°
2026-04-30 12:41 33.55070 133.66591 27 ft 13 kts 131°
2026-04-30 12:42 33.55013 133.66671 27 ft 13 kts 130°
2026-04-30 12:42 33.54956 133.66750 24 ft 13 kts 130°
2026-04-30 12:42 33.54899 133.66829 24 ft 12 kts 130°
2026-04-30 12:42 33.54845 133.66907 26 ft 12 kts 129°
2026-04-30 12:43 33.54793 133.66983 25 ft 12 kts 129°
2026-04-30 12:43 33.54742 133.67058 22 ft 11 kts 129°
2026-04-30 12:43 33.54688 133.67126 25 ft 11 kts 133°
2026-04-30 12:43 33.54654 133.67201 24 ft 11 kts 69°
2026-04-30 12:44 33.54708 133.67261 26 ft 11 kts 41°
2026-04-30 12:44 33.54743 133.67296 27 ft 2 kts 40°
2026-04-30 12:44 33.54746 133.67299 27 ft 0 kts 40°
2026-04-30 12:44 33.54747 133.67300 27 ft 0 kts 40°